Satellite-Ground Cal/Val Region Overpasses Predictions

Prediction of Satellite NPP Overpassing Cal/Val Region: PacNW

Region Location: (Latitude: 10.00, Longitude: 139.50) to (Latitude: 22.70, Longitude: 165.60).

Table of predicted overpasses for the next 14.0 days since TLE Epoch: 6/4/2022
Interval Starting Time Starting Location Ending Time Ending Location
1 06/04/2022 03:35:56 ( 10.02, 145.79) 06/04/2022 03:39:32 ( 22.70, 142.77)
2 06/04/2022 14:29:40 ( 10.94, 165.59) 06/04/2022 14:29:56 ( 10.00, 165.38)
3 06/04/2022 16:07:50 ( 22.68, 143.02) 06/04/2022 16:11:26 ( 10.00, 140.00)
4 06/05/2022 03:16:56 ( 10.02, 150.54) 06/05/2022 03:20:31 ( 22.64, 147.54)
5 06/05/2022 15:48:49 ( 22.68, 147.77) 06/05/2022 15:52:24 ( 10.06, 144.77)
6 06/06/2022 02:57:55 ( 10.03, 155.29) 06/06/2022 03:01:30 ( 22.65, 152.29)
7 06/06/2022 15:29:49 ( 22.67, 152.52) 06/06/2022 15:33:24 ( 10.05, 149.52)
8 06/07/2022 02:38:55 ( 10.03, 160.04) 06/07/2022 02:42:30 ( 22.65, 157.04)
9 06/07/2022 15:10:48 ( 22.67, 157.27) 06/07/2022 15:14:23 ( 10.05, 154.27)
10 06/08/2022 02:19:54 ( 10.04, 164.79) 06/08/2022 02:23:29 ( 22.66, 161.79)
11 06/08/2022 14:51:48 ( 22.66, 162.03) 06/08/2022 14:55:23 ( 10.04, 159.02)
12 06/09/2022 03:42:24 ( 10.04, 144.17) 06/09/2022 03:45:59 ( 22.66, 141.17)
13 06/09/2022 14:34:10 ( 17.85, 165.60) 06/09/2022 14:36:23 ( 10.04, 163.77)
14 06/09/2022 16:14:18 ( 22.66, 141.40) 06/09/2022 16:16:32 ( 14.80, 139.50)
15 06/10/2022 03:23:23 ( 10.05, 148.92) 06/10/2022 03:26:58 ( 22.67, 145.92)
16 06/10/2022 15:55:17 ( 22.65, 146.15) 06/10/2022 15:58:52 ( 10.03, 143.15)
17 06/11/2022 03:04:23 ( 10.06, 153.67) 06/11/2022 03:07:58 ( 22.68, 150.67)
18 06/11/2022 15:36:17 ( 22.64, 150.90) 06/11/2022 15:39:52 ( 10.02, 147.90)
19 06/12/2022 02:45:21 ( 10.01, 158.44) 06/12/2022 02:48:57 ( 22.69, 155.42)
20 06/12/2022 15:17:15 ( 22.69, 155.67) 06/12/2022 15:20:51 ( 10.01, 152.65)
21 06/13/2022 02:26:21 ( 10.02, 163.19) 06/13/2022 02:29:57 ( 22.70, 160.17)
22 06/13/2022 14:58:15 ( 22.68, 160.42) 06/13/2022 15:01:51 ( 10.01, 157.40)
23 06/14/2022 02:10:10 ( 20.01, 165.59) 06/14/2022 02:10:55 ( 22.65, 164.93)
24 06/14/2022 03:48:50 ( 10.03, 142.56) 06/14/2022 03:52:25 ( 22.65, 139.56)
25 06/14/2022 14:39:14 ( 22.67, 165.17) 06/14/2022 14:42:49 ( 10.05, 162.17)
26 06/14/2022 16:20:44 ( 22.67, 139.80) 06/14/2022 16:21:04 ( 21.50, 139.50)
27 06/15/2022 03:29:50 ( 10.04, 147.31) 06/15/2022 03:33:25 ( 22.66, 144.31)
28 06/15/2022 16:01:44 ( 22.66, 144.55) 06/15/2022 16:05:19 ( 10.04, 141.54)
29 06/16/2022 03:10:49 ( 10.05, 152.06) 06/16/2022 03:14:24 ( 22.67, 149.06)
30 06/16/2022 15:42:43 ( 22.65, 149.30) 06/16/2022 15:46:18 ( 10.03, 146.29)
31 06/17/2022 02:51:48 ( 10.01, 156.83) 06/17/2022 02:55:24 ( 22.69, 153.81)
